Location: Maccacari
(45.1333°N, 11.1333°E)
Time: 03:36:21
(UTC+00:00)

Altair - Pass Details

Date: 01 February 2021
Orbit: 1501 x 1682 km, 47.2° (Epoch: 01 March)

Event Time Altitude Azimuth Distance (km) Brightness Sun altitude
Rises 01:39:10 0° 219° (SW) 4,778 - -51.0°
Reaches altitude 10° 01:42:19 10° 214° (SW) 3,820 - -50.5°
Maximum altitude 01:51:38 51° 142° (SE) 1,990 - -49.1°
Exits shadow 01:55:03 38° 95° (E) 2,343 8.5 -48.6°
Drops below altitude 10° 02:01:15 10° 71° (ENE) 3,940 10.1 -47.7°
Sets 02:04:33 0° 67° (ENE) 4,937 10.9 -47.1°
